When you browse on this site, cookies collect data to enhance your experience and personalize the content and advertising you see.
Visit our Privacy Policy to learn more. By continuing to use the site, you agree to this use of cookies and data.

Hourly Weather Kabul

Today, 14 July, Tuesday

Time Temperature Precipitation Wind Pressure Humidity
00:00 +20°C° 0.3 mm 1 mps 607 mmHg 64%
01:00 +20°C° 0.3 mm 1 mps 607 mmHg 65%
02:00 +20°C° 0.3 mm 1 mps 607 mmHg 65%
03:00 +20°C° 0.1 mm 1 mps 607 mmHg 65%
04:00 +20°C° 0.1 mm 1 mps 607 mmHg 64%
05:00 +20°C° 0 mm 1 mps 607 mmHg 65%
06:00 +21°C° 0.1 mm 1 mps 607 mmHg 59%
07:00 +22°C° 0.1 mm 1 mps 608 mmHg 54%
08:00 +23°C° 0.1 mm 1 mps 608 mmHg 48%
09:00 +24°C° 0 mm 1 mps 609 mmHg 44%
10:00 +26°C° 0 mm 1 mps 609 mmHg 39%
11:00 +27°C° 0 mm 1 mps 609 mmHg 36%
12:00 +28°C° 0 mm 1 mps 609 mmHg 33%
13:00 +30°C° 0 mm 2 mps 609 mmHg 30%
14:00 +31°C° 0 mm 2 mps 609 mmHg 26%
15:00 +30°C° 0.1 mm 2 mps 609 mmHg 29%
16:00 +29°C° 0.1 mm 3 mps 609 mmHg 31%
17:00 +29°C° 0 mm 2 mps 608 mmHg 32%
18:00 +28°C° 0.1 mm 2 mps 609 mmHg 34%
19:00 +28°C° 0.1 mm 2 mps 609 mmHg 36%
20:00 +27°C° 0.1 mm 2 mps 609 mmHg 38%
21:00 +27°C° 0 mm 2 mps 609 mmHg 39%
22:00 +26°C° 0 mm 2 mps 609 mmHg 40%
23:00 +26°C° 0 mm 2 mps 609 mmHg 42%

Tomorrow, 15 July, Wednesday

Time Temperature Precipitation Wind Pressure Humidity
00:00 +25°C° 0 mm 1 mps 609 mmHg 44%
01:00 +25°C° 0 mm 1 mps 609 mmHg 46%
02:00 +24°C° 0 mm 1 mps 608 mmHg 48%
03:00 +22°C° 0 mm 0 mps 608 mmHg 49%
04:00 +21°C° 0 mm 0 mps 608 mmHg 50%
05:00 +21°C° 0 mm 0 mps 608 mmHg 51%
06:00 +22°C° 0 mm 0 mps 609 mmHg 46%
07:00 +23°C° 0 mm 0 mps 609 mmHg 41%
08:00 +24°C° 0 mm 0 mps 610 mmHg 36%
09:00 +28°C° 0 mm 1 mps 610 mmHg 33%
10:00 +29°C° 0 mm 1 mps 610 mmHg 30%
11:00 +30°C° 0 mm 1 mps 611 mmHg 28%
12:00 +30°C° 0.2 mm 3 mps 610 mmHg 28%
13:00 +32°C° 0.2 mm 5 mps 610 mmHg 29%
14:00 +32°C° 0.2 mm 6 mps 610 mmHg 30%
15:00 +30°C° 0.4 mm 6 mps 610 mmHg 32%
16:00 +28°C° 0.4 mm 5 mps 609 mmHg 34%
17:00 +27°C° 0.4 mm 4 mps 608 mmHg 36%
18:00 +27°C° 0.1 mm 3 mps 609 mmHg 36%
19:00 +27°C° 0.1 mm 2 mps 609 mmHg 36%
20:00 +27°C° 0.1 mm 1 mps 609 mmHg 36%
21:00 +26°C° 0 mm 1 mps 610 mmHg 38%
22:00 +26°C° 0 mm 1 mps 610 mmHg 40%
23:00 +24°C° 0 mm 0 mps 610 mmHg 42%

Day after tomorrow, 16 July, Thursday

Time Temperature Precipitation Wind Pressure Humidity
00:00 +26°C° 0 mm 1 mps 610 mmHg 42%
01:00 +25°C° 0 mm 1 mps 609 mmHg 43%
02:00 +25°C° 0 mm 1 mps 609 mmHg 43%
03:00 +24°C° 0 mm 1 mps 608 mmHg 46%
04:00 +21°C° 0 mm 0 mps 608 mmHg 48%
05:00 +21°C° 0 mm 0 mps 608 mmHg 51%
06:00 +22°C° 0 mm 0 mps 608 mmHg 47%
07:00 +23°C° 0 mm 0 mps 608 mmHg 43%
08:00 +24°C° 0 mm 0 mps 609 mmHg 38%
09:00 +27°C° 0.1 mm 1 mps 609 mmHg 35%
10:00 +28°C° 0.1 mm 1 mps 609 mmHg 32%
11:00 +29°C° 0.1 mm 2 mps 610 mmHg 29%
12:00 +30°C° 0.1 mm 2 mps 610 mmHg 28%
13:00 +31°C° 0.1 mm 3 mps 610 mmHg 27%
14:00 +31°C° 0.1 mm 3 mps 610 mmHg 26%
15:00 +29°C° 1 mm 4 mps 609 mmHg 36%
16:00 +26°C° 1 mm 5 mps 607 mmHg 46%
17:00 +22°C° 1 mm 6 mps 606 mmHg 56%
18:00 +22°C° 0.1 mm 5 mps 607 mmHg 54%
19:00 +22°C° 0.1 mm 3 mps 607 mmHg 52%
20:00 +24°C° 0.1 mm 2 mps 608 mmHg 50%
21:00 +24°C° 0 mm 2 mps 608 mmHg 50%
22:00 +24°C° 0 mm 1 mps 608 mmHg 50%
23:00 +23°C° 0 mm 1 mps 608 mmHg 50%

17 July, Friday

Time Temperature Precipitation Wind Pressure Humidity
00:00 +23°C° 0 mm 1 mps 608 mmHg 51%
01:00 +21°C° 0 mm 0 mps 608 mmHg 52%
02:00 +21°C° 0 mm 0 mps 608 mmHg 53%
03:00 +20°C° 0 mm 0 mps 608 mmHg 53%
04:00 +20°C° 0 mm 0 mps 607 mmHg 53%
05:00 +20°C° 0 mm 0 mps 607 mmHg 54%
06:00 +21°C° 0 mm 0 mps 608 mmHg 49%
07:00 +22°C° 0 mm 0 mps 609 mmHg 44%
08:00 +24°C° 0 mm 0 mps 609 mmHg 39%
09:00 +27°C° 0 mm 1 mps 610 mmHg 35%
10:00 +28°C° 0 mm 1 mps 610 mmHg 32%
11:00 +29°C° 0 mm 1 mps 610 mmHg 28%
12:00 +30°C° 0 mm 1 mps 610 mmHg 26%
13:00 +31°C° 0 mm 2 mps 610 mmHg 24%
14:00 +32°C° 0 mm 2 mps 610 mmHg 22%
15:00 +33°C° 0 mm 3 mps 610 mmHg 22%
16:00 +33°C° 0 mm 3 mps 610 mmHg 23%
17:00 +33°C° 0 mm 4 mps 610 mmHg 23%
18:00 +31°C° 0 mm 3 mps 610 mmHg 26%
19:00 +30°C° 0 mm 2 mps 610 mmHg 28%
20:00 +29°C° 0 mm 2 mps 610 mmHg 30%
21:00 +28°C° 0 mm 1 mps 610 mmHg 31%
22:00 +28°C° 0 mm 1 mps 610 mmHg 33%
23:00 +27°C° 0 mm 1 mps 610 mmHg 34%

18 July, Saturday

Time Temperature Precipitation Wind Pressure Humidity
00:00 +27°C° 0 mm 1 mps 610 mmHg 35%
01:00 +26°C° 0 mm 1 mps 609 mmHg 35%
02:00 +25°C° 0 mm 1 mps 609 mmHg 36%
03:00 +25°C° 0 mm 1 mps 609 mmHg 36%
04:00 +24°C° 0 mm 1 mps 608 mmHg 36%
05:00 +24°C° 0 mm 1 mps 608 mmHg 36%
06:00 +25°C° 0 mm 1 mps 609 mmHg 33%
07:00 +26°C° 0 mm 1 mps 609 mmHg 29%
08:00 +26°C° 0 mm 0 mps 610 mmHg 26%
09:00 +29°C° 0 mm 1 mps 610 mmHg 24%
10:00 +30°C° 0 mm 1 mps 611 mmHg 22%
11:00 +31°C° 0 mm 1 mps 611 mmHg 20%
12:00 +32°C° 0 mm 2 mps 611 mmHg 19%
13:00 +34°C° 0 mm 2 mps 611 mmHg 18%
14:00 +35°C° 0 mm 2 mps 611 mmHg 17%
15:00 +35°C° 0 mm 3 mps 611 mmHg 17%
16:00 +35°C° 0 mm 3 mps 610 mmHg 17%
17:00 +35°C° 0 mm 4 mps 610 mmHg 16%
18:00 +34°C° 0 mm 4 mps 610 mmHg 18%
19:00 +33°C° 0 mm 4 mps 610 mmHg 19%
20:00 +30°C° 0 mm 4 mps 610 mmHg 20%
21:00 +29°C° 0 mm 3 mps 609 mmHg 21%
22:00 +28°C° 0 mm 2 mps 609 mmHg 23%
23:00 +28°C° 0 mm 2 mps 609 mmHg 24%

19 July, Sunday

Time Temperature Precipitation Wind Pressure Humidity
00:00 +27°C° 0 mm 1 mps 609 mmHg 25%
01:00 +26°C° 0 mm 1 mps 609 mmHg 26%
02:00 +26°C° 0 mm 1 mps 608 mmHg 27%
03:00 +25°C° 0 mm 1 mps 608 mmHg 28%
04:00 +24°C° 0 mm 1 mps 608 mmHg 28%
05:00 +24°C° 0 mm 1 mps 608 mmHg 28%
06:00 +25°C° 0 mm 1 mps 608 mmHg 26%
07:00 +26°C° 0 mm 1 mps 609 mmHg 24%
08:00 +27°C° 0 mm 1 mps 609 mmHg 21%
09:00 +29°C° 0 mm 2 mps 609 mmHg 19%
10:00 +30°C° 0 mm 3 mps 610 mmHg 18%
11:00 +31°C° 0 mm 3 mps 610 mmHg 16%
12:00 +33°C° 0 mm 4 mps 610 mmHg 15%
13:00 +34°C° 0 mm 5 mps 610 mmHg 14%
14:00 +35°C° 0 mm 6 mps 610 mmHg 13%
15:00 +35°C° 0 mm 7 mps 609 mmHg 13%
16:00 +35°C° 0 mm 8 mps 609 mmHg 13%
17:00 +34°C° 0 mm 9 mps 608 mmHg 12%
18:00 +33°C° 0 mm 8 mps 608 mmHg 14%
19:00 +30°C° 0 mm 6 mps 608 mmHg 16%
20:00 +29°C° 0 mm 5 mps 607 mmHg 17%
21:00 +28°C° 0 mm 5 mps 607 mmHg 19%
22:00 +27°C° 0 mm 4 mps 607 mmHg 20%
23:00 +26°C° 0 mm 4 mps 607 mmHg 21%
Show more